Location: Lafig�re
(44.4503°N, 4.0357°E)
Time: 14:54:35
(UTC+00:00)

S-56A Canister/Altair - Pass Details

Date: 26 January 2021
Orbit: 631 x 2501 km, 38.9° (Epoch: 01 March)

Event Time Altitude Azimuth Distance (km) Brightness Sun altitude
Rises 06:03:50 0° 269° (W) 2,972 - -11.7°
Reaches altitude 10° 06:06:18 10° 255° (WSW) 2,149 - -11.2°
Exits shadow 06:06:25 11° 254° (WSW) 2,112 9.3 -11.2°
Maximum altitude 06:10:18 25° 199° (SSW) 1,551 9.1 -10.5°
Drops below altitude 10° 06:15:17 10° 146° (SE) 2,737 11.2 -9.7°
Sets 06:18:52 0° 135° (SE) 3,996 12.5 -9.1°
